UAL832 SAEZ-KIAH

Flight info

Callsign UAL832
Flight time N/A
Altitude 32000
Route BIVAM3A BIVAM UW8 ERE UT680 TUC UL550 KONRI/N0496F340 UL550 ALDAX DCT ILMAR UM542 OKASO/N0491F360 UM542 ARNEL DCT LIXAS UZ512 RADIM DCT DRITO DCT AVAKO/N0483F380 DCT DUTNA L208 PEGLG NNCEE2
Aircraft B772/H-SDE2E3FGHIJ5LORVWXY/LB1D1

Departure

Time 2026-04-30 21:10
Airport Ezeiza International Airport - Ministro Pistarini (SAEZ)

Arrival

Time N/A
Airport George Bush Intercontinental Airport (KIAH)
Time Latitude Longitude Altitude Speed Heading
2026-04-30 20:47 -34.81364 -58.53698 85 ft 0 kts 309°
2026-04-30 21:00 -34.81388 -58.53663 85 ft 1 kts 309°
2026-04-30 21:00 -34.81403 -58.53610 85 ft 4 kts 239°
2026-04-30 21:01 -34.81362 -58.53592 85 ft 1 kts 187°
2026-04-30 21:03 -34.81409 -58.53601 82 ft 11 kts 196°
2026-04-30 21:04 -34.81476 -58.53641 85 ft 11 kts 207°
2026-04-30 21:04 -34.81543 -58.53682 82 ft 11 kts 207°
2026-04-30 21:04 -34.81659 -58.53796 83 ft 11 kts 223°
2026-04-30 21:05 -34.81708 -58.53863 83 ft 11 kts 237°
2026-04-30 21:05 -34.81748 -58.53941 84 ft 11 kts 240°
2026-04-30 21:05 -34.81778 -58.54023 82 ft 11 kts 250°
2026-04-30 21:05 -34.81790 -58.54112 83 ft 11 kts 273°
2026-04-30 21:06 -34.81781 -58.54203 82 ft 11 kts 277°
2026-04-30 21:06 -34.81771 -58.54294 82 ft 11 kts 278°
2026-04-30 21:06 -34.81760 -58.54384 81 ft 11 kts 278°
2026-04-30 21:06 -34.81748 -58.54491 82 ft 14 kts 274°
2026-04-30 21:07 -34.81771 -58.54620 83 ft 18 kts 254°
2026-04-30 21:07 -34.81777 -58.54783 84 ft 21 kts 280°
2026-04-30 21:07 -34.81742 -58.54972 80 ft 25 kts 283°
2026-04-30 21:07 -34.81708 -58.55153 83 ft 17 kts 285°
2026-04-30 21:08 -34.81717 -58.55306 85 ft 20 kts 230°
2026-04-30 21:08 -34.81809 -58.55330 83 ft 12 kts 162°
2026-04-30 21:08 -34.81889 -58.55300 85 ft 12 kts 162°
2026-04-30 21:08 -34.81893 -58.55298 85 ft 1 kts 161°
2026-04-30 21:09 -34.81920 -58.55263 87 ft 9 kts 105°
2026-04-30 21:09 -34.81921 -58.55255 87 ft 0 kts 100°
2026-04-30 21:09 -34.81922 -58.55243 86 ft 11 kts 99°
2026-04-30 21:09 -34.81979 -58.54898 87 ft 74 kts 102°
2026-04-30 21:10 -34.82133 -58.54043 88 ft 133 kts 102°
2026-04-30 21:10 -34.82358 -58.52746 167 ft 172 kts 100°
2026-04-30 21:10 -34.82605 -58.51326 774 ft 168 kts 99°
2026-04-30 21:10 -34.82875 -58.49933 1407 ft 172 kts 100°
2026-04-30 21:11 -34.83197 -58.48497 1908 ft 178 kts 102°
2026-04-30 21:11 -34.83545 -58.47034 2430 ft 182 kts 102°
2026-04-30 21:11 -34.83708 -58.45498 2580 ft 187 kts 68°
2026-04-30 21:11 -34.82944 -58.44282 2670 ft 188 kts 21°
2026-04-30 21:12 -34.81645 -58.44197 2812 ft 198 kts 338°
2026-04-30 21:12 -34.80442 -58.45126 2938 ft 213 kts 329°
2026-04-30 21:12 -34.79098 -58.46025 3145 ft 233 kts 333°
2026-04-30 21:12 -34.77609 -58.46936 3566 ft 245 kts 334°
2026-04-30 21:13 -34.76055 -58.47875 4162 ft 252 kts 334°
2026-04-30 21:13 -34.74477 -58.48826 4868 ft 254 kts 334°
2026-04-30 21:13 -34.72881 -58.49785 5566 ft 257 kts 334°
2026-04-30 21:13 -34.71270 -58.50751 6257 ft 259 kts 334°
2026-04-30 21:14 -34.70195 -58.51394 6673 ft 261 kts 334°
2026-04-30 21:14 -34.68023 -58.52692 7568 ft 262 kts 334°
2026-04-30 21:14 -34.66383 -58.53671 8220 ft 264 kts 333°
2026-04-30 21:14 -34.64730 -58.54658 8876 ft 266 kts 333°
2026-04-30 21:15 -34.63621 -58.55319 9318 ft 267 kts 333°
2026-04-30 21:15 -34.61950 -58.56315 9984 ft 268 kts 333°
2026-04-30 21:15 -34.60242 -58.57333 10353 ft 281 kts 332°
2026-04-30 21:15 -34.58427 -58.58416 10477 ft 302 kts 332°
2026-04-30 21:16 -34.56476 -58.59579 10648 ft 323 kts 332°
2026-04-30 21:16 -34.54393 -58.60819 10823 ft 344 kts 332°
2026-04-30 21:16 -34.52210 -58.62117 11315 ft 355 kts 332°
2026-04-30 21:16 -34.49969 -58.63446 11935 ft 362 kts 332°
2026-04-30 21:17 -34.47691 -58.64796 12664 ft 365 kts 332°
2026-04-30 21:17 -34.45394 -58.66156 13412 ft 369 kts 331°
2026-04-30 21:17 -34.43103 -58.67513 14100 ft 373 kts 331°
2026-04-30 21:17 -34.40762 -58.68899 14770 ft 375 kts 330°
2026-04-30 21:18 -34.38413 -58.70289 15477 ft 377 kts 330°
2026-04-30 21:18 -34.36045 -58.71689 16157 ft 379 kts 330°
2026-04-30 21:18 -34.33667 -58.73094 16777 ft 382 kts 330°
2026-04-30 21:18 -34.31269 -58.74512 17409 ft 385 kts 330°
2026-04-30 21:19 -34.28855 -58.75937 18053 ft 387 kts 330°
2026-04-30 21:19 -34.26429 -58.77369 18620 ft 389 kts 330°
2026-04-30 21:19 -34.23980 -58.78812 19153 ft 392 kts 329°
2026-04-30 21:19 -34.21521 -58.80261 19661 ft 395 kts 329°
2026-04-30 21:20 -34.19045 -58.81719 20174 ft 397 kts 329°
2026-04-30 21:20 -34.16548 -58.83189 20658 ft 400 kts 329°
2026-04-30 21:20 -34.14034 -58.84667 21158 ft 403 kts 329°
2026-04-30 21:20 -34.11537 -58.86135 21629 ft 406 kts 329°
2026-04-30 21:21 -34.08992 -58.87629 22132 ft 408 kts 329°
2026-04-30 21:21 -34.06433 -58.89131 22640 ft 410 kts 329°
2026-04-30 21:21 -34.01265 -58.92161 23606 ft 415 kts 329°
2026-04-30 21:22 -33.98654 -58.93690 24002 ft 418 kts 329°
2026-04-30 21:22 -33.91059 -58.98931 25134 ft 421 kts 324°
2026-04-30 21:23 -33.88556 -59.00787 25506 ft 423 kts 324°
2026-04-30 21:23 -33.86036 -59.02651 25888 ft 425 kts 324°